Precipitable_Water
2.03 2.04 2.06 2.07 2.05 2.06 2.05 1.94 2.05 2.13 2.20 2.18 2.17 2.24 1.95 2.13 2.08 2.03 1.97 1.96 1.88 1.92 1.97 1.97 1.70 1.66 1.61 1.60 1.63 1.64 1.62 1.45 1.47 1.58 1.57 1.55 1.61 1.45 1.50 1.51 1.57 1.61 1.66
2.14 2.12 2.12 2.14 2.13 2.10 2.07 2.12 2.09 2.14 2.17 2.13 2.05 2.14 2.11 2.20 2.13 2.12 2.06 2.01 1.89 1.79 1.79 1.71 1.58 1.56 1.43 1.36 1.44 1.51 1.47 1.41 1.27 1.59 1.58 1.53 1.49 1.37 1.49 1.48 1.53 1.60 1.61
2.13 2.15 2.14 2.18 2.20 2.08 2.06 2.08 2.13 2.15 2.11 2.04 1.96 2.11 2.22 2.20 2.19 2.12 2.13 2.00 1.91 1.78 1.70 1.56 1.49 1.50 1.44 1.43 1.38 1.37 1.18 1.47 1.18 1.45 1.55 1.48 1.50 1.44 1.56 1.49 1.44 1.51 1.53
2.11 2.15 2.08 2.15 2.21 2.10 2.08 2.04 2.03 2.08 2.05 1.99 1.96 2.09 2.23 2.26 2.23 2.19 2.13 2.03 1.92 1.78 1.60 1.53 1.48 1.48 1.50 1.38 1.33 1.34 1.21 1.42 1.47 1.36 1.50 1.47 1.51 1.54 1.50 1.51 1.54 1.62 1.64
2.07 2.06 2.10 2.17 2.25 2.10 2.00 2.06 2.03 2.03 2.00 1.96 1.99 2.15 2.19 2.24 2.23 2.26 2.12 2.02 1.92 1.82 1.70 1.51 1.40 1.43 1.49 1.42 1.33 1.39 1.43 1.44 1.46 1.46 1.40 1.32 1.38 1.43 1.44 1.41 1.41 1.44 1.49
2.15 2.16 2.20 2.22 2.27 2.19 2.06 2.02 1.98 2.01 2.03 1.99 2.04 1.83 1.91 2.14 2.25 2.20 2.13 2.08 1.96 1.80 1.68 1.51 1.41 1.36 1.46 1.53 1.42 1.40 1.44 1.41 1.33 1.38 1.39 1.34 1.30 1.30 1.32 1.37 1.38 1.38 1.40
2.19 2.15 2.17 2.18 2.22 2.18 2.13 2.06 2.00 1.92 1.99 2.13 2.06 1.98 2.04 2.09 2.03 2.09 2.18 2.02 1.97 1.81 1.64 1.56 1.53 1.48 1.44 1.47 1.50 1.44 1.45 1.43 1.43 1.35 1.32 1.31 1.32 1.30 1.28 1.24 1.24 1.27 1.30
2.26 2.17 2.16 2.14 2.22 2.19 2.17 2.08 2.00 1.86 2.01 2.09 1.88 1.84 1.71 1.89 1.93 2.05 2.13 2.03 1.94 1.91 1.81 1.76 1.73 1.65 1.58 1.50 1.52 1.50 1.45 1.48 1.45 1.41 1.38 1.33 1.28 1.22 1.24 1.29 1.29 1.31 1.33
2.27 2.25 2.20 2.22 2.24 2.20 2.11 2.17 1.98 1.96 1.85 2.07 2.09 1.83 1.55 1.51 1.65 1.94 1.95 2.00 1.93 1.81 1.83 1.82 1.87 1.83 1.79 1.68 1.53 1.52 1.48 1.47 1.45 1.45 1.41 1.39 1.35 1.32 1.31 1.26 1.24 1.26 1.28
2.23 2.25 2.22 2.20 2.27 2.21 2.19 2.23 2.08 1.90 1.97 1.91 1.96 1.93 1.91 1.86 1.57 1.53 1.84 1.92 1.91 1.87 1.78 1.77 1.80 1.83 1.84 1.79 1.76 1.64 1.56 1.51 1.46 1.41 1.42 1.41 1.37 1.35 1.35 1.35 1.36 1.34 1.30
2.17 2.16 2.09 2.13 2.15 2.24 2.24 2.15 2.06 1.89 1.88 1.92 1.89 1.86 1.90 1.93 1.92 1.67 1.57 1.74 1.96 1.97 1.90 1.80 1.84 1.79 1.78 1.84 1.80 1.74 1.67 1.65 1.53 1.45 1.45 1.45 1.42 1.40 1.39 1.38 1.35 1.33 1.31
2.00 2.04 2.17 2.17 2.19 2.26 2.17 2.16 2.09 1.98 1.82 1.92 2.00 1.98 1.86 1.73 1.69 1.66 1.64 1.69 1.68 1.82 1.88 1.86 1.81 1.81 1.86 1.85 1.81 1.77 1.73 1.75 1.69 1.58 1.52 1.48 1.48 1.49 1.47 1.43 1.41 1.42 1.44
2.04 2.11 2.19 2.12 2.19 2.30 2.26 2.13 2.08 1.92 1.78 1.80 1.88 1.95 1.99 1.90 1.91 1.94 1.76 1.71 1.71 1.77 1.77 1.91 1.91 1.85 1.86 1.86 1.85 1.92 1.83 1.78 1.74 1.69 1.66 1.62 1.57 1.52 1.49 1.47 1.44 1.43 1.46
2.11 2.28 2.20 2.22 2.26 2.27 2.19 2.09 1.99 1.96 1.98 1.90 1.84 1.88 1.94 1.89 1.86 1.92 1.80 1.77 1.65 1.67 1.80 1.69 1.92 1.96 1.92 1.82 1.88 1.91 1.95 1.89 1.86 1.83 1.81 1.79 1.77 1.74 1.72 1.70 1.70 1.72 1.76
2.14 2.04 2.06 2.13 2.35 2.31 2.22 2.12 2.02 1.97 1.94 1.93 1.81 1.78 1.77 1.89 1.91 1.85 1.82 1.90 1.66 1.47 1.53 1.75 1.75 1.90 1.97 1.96 1.95 2.00 1.96 1.99 2.11 2.08 2.01 1.93 1.86 1.78 1.79 1.79 1.84 1.86 1.84
2.00 2.01 1.98 1.93 2.25 2.24 2.28 2.19 2.10 2.01 1.96 2.00 2.02 1.96 1.90 1.80 1.80 1.87 1.75 1.70 1.65 1.47 1.35 1.62 1.74 1.80 1.89 1.94 1.90 1.90 1.94 2.01 2.06 2.02 2.00 1.95 1.93 1.92 1.93 1.89 1.84 1.86 1.86
2.02 1.92 1.81 1.96 2.02 2.19 2.23 2.19 2.12 2.08 2.04 1.97 1.99 1.95 1.90 1.93 1.78 1.78 1.78 1.72 1.68 1.72 1.44 1.59 1.66 1.79 1.81 1.71 1.74 1.90 1.86 1.92 1.88 1.83 1.87 1.89 1.92 1.93 1.89 1.89 1.90 1.89 1.88
1.96 1.84 1.82 1.70 2.08 2.06 2.03 2.06 2.06 2.08 2.04 1.96 1.90 1.85 1.88 1.95 1.81 1.81 1.76 1.83 1.78 1.86 1.59 1.54 1.68 1.79 2.11 1.90 1.98 2.04 2.04 2.10 2.11 2.02 2.00 1.98 1.94 1.92 1.90 1.87 1.82 1.80 1.81
1.52 1.70 1.65 1.65 1.87 1.90 2.00 2.04 2.05 2.08 2.05 2.03 2.02 2.03 1.98 1.98 1.92 1.94 1.89 1.87 1.94 1.93 1.84 1.69 1.65 1.83 1.91 2.02 1.98 2.08 2.10 2.10 2.11 2.08 2.06 2.07 1.99 2.01 2.02 2.04 2.05 2.00 1.97
1.35 1.44 1.41 1.46 1.49 1.56 1.65 1.78 1.93 1.97 1.96 1.99 2.03 2.03 2.05 2.00 2.00 1.97 1.97 1.91 1.90 1.84 1.85 1.80 1.74 1.78 1.82 1.90 1.90 1.74 1.68 1.80 1.73 1.80 1.80 1.82 1.78 1.75 1.74 1.76 1.81 1.87 1.84
1.43 1.44 1.45 1.42 1.34 1.33 1.33 1.32 1.35 1.36 1.44 1.63 1.82 1.90 1.78 1.72 1.79 1.87 1.87 1.68 1.63 1.62 1.57 1.57 1.56 1.57 1.52 1.46 1.44 1.55 1.50 1.56 1.55 1.57 1.46 1.45 1.41 1.42 1.47 1.49 1.49 1.44 1.36
1.46 1.42 1.41 1.39 1.28 1.24 1.26 1.24 1.23 1.16 1.10 1.05 1.14 1.18 1.13 1.18 1.28 1.31 1.38 1.50 1.45 1.25 1.19 1.22 1.26 1.22 1.26 1.32 1.40 1.40 1.37 1.15 0.91 1.24 1.06 0.95 1.10 1.04 1.13 1.18 1.21 1.20 1.17
1.43 1.39 1.40 1.36 1.29 1.25 1.16 1.07 1.01 1.13 1.12 1.12 1.12 1.14 1.09 1.11 1.09 1.08 1.06 1.02 0.99 0.98 0.93 0.87 0.75 0.79 0.86 0.96 0.99 0.94 0.96 0.97 0.97 1.07 1.01 0.81 0.89 0.88 1.02 1.13 1.20 1.26 1.24
1.43 1.39 1.40 1.36 1.29 1.20 1.11 1.01 1.00 1.09 1.11 1.06 1.05 1.05 1.03 1.02 1.02 0.97 0.94 0.92 0.96 1.01 1.02 1.00 1.01 1.02 1.04 1.06 1.00 0.94 0.88 0.91 0.98 0.99 1.02 0.79 0.99 0.95 1.09 1.24 1.31 1.32 1.31
1.53 1.53 1.56 1.52 1.38 1.21 1.10 1.02 1.00 1.01 1.03 1.05 1.09 1.03 1.00 0.94 0.92 0.85 0.79 0.77 0.79 0.89 1.06 1.05 1.06 1.06 1.04 1.04 1.04 0.96 0.84 0.80 0.77 0.85 1.04 0.96 1.02 1.02 1.09 1.15 1.25 1.32 1.37
1.59 1.63 1.68 1.70 1.56 1.37 1.22 1.10 1.02 1.03 1.00 1.00 1.03 1.04 1.00 0.94 0.85 0.77 0.70 0.76 0.76 0.83 0.91 0.97 1.01 1.02 1.02 1.06 1.05 1.02 0.98 0.85 0.84 0.81 1.05 0.93 0.98 1.00 0.87 1.11 1.13 1.18 1.22
Wind_Speed
2 2 2 3 4 5 6 6 4 5 4 4 4 4 6 7 2 5 4 3 5 5 10 15 15 14 13 12 12 11 11 10 10 10 10 10 10 9 9 8 8 8 8
5 4 5 5 5 6 6 4 4 4 4 4 3 4 3 5 6 5 4 5 5 7 13 15 14 14 12 12 11 11 11 10 11 11 11 11 10 10 10 9 8 7 7
6 6 6 5 5 4 4 4 4 3 3 1 3 3 5 5 6 5 5 6 6 10 13 13 14 13 12 11 11 11 12 11 11 12 11 11 10 10 10 9 8 7 7
9 8 7 6 5 4 4 4 4 3 2 3 3 4 4 6 7 7 6 7 8 10 14 13 14 13 12 11 11 12 12 12 12 12 11 11 10 10 10 9 8 7 7
10 9 9 7 7 6 5 5 6 5 4 4 4 4 3 5 6 8 7 8 8 11 13 15 14 13 12 12 12 12 12 11 11 11 11 11 10 10 9 9 8 8 8
11 10 10 10 9 8 8 7 7 6 5 3 2 3 4 3 4 6 8 9 9 11 13 14 14 14 13 12 12 12 12 11 11 11 11 11 10 10 9 9 9 9 9
11 11 11 11 11 9 10 7 8 7 6 4 2 1 2 2 5 4 8 9 10 11 13 13 13 14 15 14 13 13 12 12 12 11 11 11 11 10 10 10 9 9 9
13 13 13 12 12 11 11 9 8 7 7 5 3 1 1 2 5 5 7 8 9 11 12 13 13 14 15 16 16 15 14 14 13 12 12 12 11 11 11 10 10 10 10
13 13 14 13 13 13 12 12 10 9 6 5 3 2 3 2 4 6 7 8 8 9 10 11 12 13 14 15 16 17 17 16 16 15 14 13 13 13 12 12 12 12 12
12 12 12 12 12 11 13 13 11 10 8 6 4 4 4 4 5 4 5 8 8 9 9 10 11 12 12 14 15 16 16 17 17 17 16 16 15 15 14 14 14 15 15
12 12 11 12 11 10 13 14 12 12 9 8 6 4 4 4 3 3 3 6 9 9 8 9 9 10 11 12 12 14 15 16 17 18 17 17 17 17 17 17 17 17 17
11 11 11 11 11 12 14 15 14 12 12 9 7 6 5 3 2 2 2 3 8 9 9 8 8 9 10 11 11 12 13 15 16 16 17 17 18 19 19 19 19 19 20
10 9 9 10 9 11 14 16 15 12 12 11 9 7 6 5 3 2 1 3 6 7 8 8 8 9 10 10 11 12 12 13 14 14 15 15 16 18 18 19 20 20 21
8 7 8 9 10 11 13 16 15 13 12 12 11 8 7 6 5 3 2 3 4 4 5 6 8 9 8 9 9 10 11 13 13 14 14 14 15 16 16 17 18 18 20
8 6 6 7 7 12 14 15 15 13 12 11 11 10 8 7 6 5 4 3 4 4 4 4 4 8 10 10 10 10 9 9 11 13 14 15 15 16 17 17 18 19 21
7 6 5 1 6 7 12 12 13 12 12 11 11 10 10 10 9 6 6 5 5 5 4 4 7 5 8 8 10 10 10 10 9 10 11 13 13 15 16 17 18 19 19
5 5 4 4 4 5 8 9 10 11 12 11 11 10 11 10 10 9 8 6 5 6 5 6 5 7 7 8 8 9 10 9 10 11 11 12 14 15 16 16 17 18 19
3 4 3 4 4 4 7 7 9 10 10 10 11 11 11 10 11 10 10 10 8 7 7 6 6 7 7 8 7 8 9 10 11 11 12 13 14 16 18 19 19 19 20
3 4 3 3 4 5 5 5 8 8 9 8 8 9 10 11 11 11 12 12 11 10 9 9 10 9 8 10 10 11 12 13 14 15 16 17 18 18 19 21 22 22 22
4 4 4 4 4 4 5 5 5 7 7 7 8 8 9 9 10 11 11 11 13 13 13 13 12 13 13 13 14 15 16 16 17 17 17 17 19 20 22 23 24 25 25
3 3 3 3 3 2 3 4 4 5 7 7 8 8 7 8 8 8 10 11 11 11 12 13 13 13 13 13 14 15 16 16 17 17 18 18 19 20 21 22 23 24 25
6 5 4 3 3 3 3 5 6 6 7 8 8 9 9 10 10 10 11 12 13 14 14 14 14 15 16 16 16 16 17 18 20 20 21 22 23 23 24 25 26 27 28
9 8 7 7 6 6 6 6 7 7 7 7 8 8 9 10 10 11 12 13 13 14 15 16 17 17 18 18 19 20 20 21 22 23 24 24 24 24 24 24 25 24 24
10 12 11 11 10 10 10 9 9 9 9 9 9 10 10 11 12 13 14 14 15 15 15 16 17 17 17 18 19 20 21 22 23 24 23 22 22 23 23 22 22 23 25
13 13 13 15 14 13 13 12 12 11 11 11 10 11 11 11 12 13 14 14 15 15 15 15 17 18 18 19 20 20 20 21 22 23 23 23 24 24 24 25 26 27 27
15 16 17 18 18 17 16 16 15 14 13 13 12 12 12 12 13 13 14 14 15 15 16 17 18 18 18 18 18 19 20 21 22 22 22 23 24 25 25 26 27 29 30
Wind_Direction
248 247 265 269 277 275 276 264 261 254 275 276 255 232 238 206 185 186 177 188 191 204 190 180 176 175 175 176 177 177 177 178 176 173 171 168 165 162 159 154 151 152 147
253 261 270 279 287 282 263 256 249 256 273 266 222 207 214 205 204 192 192 181 168 162 156 161 166 168 173 175 179 179 179 176 175 173 171 170 169 168 166 164 161 160 160
254 265 273 277 286 282 252 243 255 240 269 210 219 236 228 212 204 195 188 182 172 167 165 164 166 168 171 173 175 176 176 173 173 175 175 175 175 175 174 175 174 173 174
255 266 257 270 278 261 247 251 228 224 247 229 255 261 239 221 210 201 192 183 175 172 175 170 170 172 172 172 171 171 172 174 176 179 181 181 181 182 185 186 188 188 187
254 258 262 265 263 251 247 255 233 236 248 245 265 265 234 217 213 195 191 182 177 179 181 182 178 177 175 175 174 176 177 179 181 183 185 185 187 190 192 196 201 202 203
254 253 260 266 258 250 244 250 235 235 237 241 258 267 223 220 203 191 186 187 183 180 180 184 189 190 189 187 184 183 185 186 188 190 192 193 194 197 200 204 209 213 216
250 257 260 262 257 245 241 243 232 228 228 229 225 264 236 202 191 178 178 179 187 185 187 189 193 199 200 200 199 197 196 197 198 199 200 202 205 206 208 212 218 221 226
251 261 259 259 256 250 239 229 220 216 218 214 234 231 188 184 197 181 174 182 184 186 194 198 203 205 209 211 210 209 210 210 210 210 210 211 213 216 220 223 226 231 234
257 258 258 258 255 248 232 218 212 207 203 205 213 169 148 157 161 180 183 182 185 188 194 198 205 207 210 213 214 217 218 219 218 218 219 221 223 226 230 233 236 240 243
252 259 257 257 257 250 217 212 208 205 199 191 182 172 161 135 136 158 184 194 188 187 187 197 203 206 208 211 215 219 221 222 222 224 227 230 232 234 237 240 243 246 249
253 258 259 255 254 233 214 208 206 203 201 197 194 171 173 165 166 147 176 199 198 198 196 197 199 205 209 212 215 219 220 222 225 228 233 235 237 240 244 247 249 252 254
256 256 252 252 246 228 213 204 205 205 203 200 203 197 183 184 200 180 200 202 198 198 197 198 202 204 207 211 215 219 221 224 227 231 234 238 242 245 248 250 252 255 257
251 254 253 247 236 222 206 202 201 200 202 205 204 204 210 206 189 184 73 160 159 182 195 205 206 205 209 213 218 223 225 225 227 231 236 241 244 247 250 253 256 258 260
252 257 255 240 226 209 197 194 195 201 203 208 210 214 216 214 219 211 176 154 159 175 187 200 212 214 213 213 215 219 227 228 231 235 239 243 247 249 251 253 257 260 262
250 260 268 243 218 201 193 191 199 204 204 208 214 219 219 220 220 221 220 201 192 172 199 205 209 219 216 216 219 223 227 230 238 240 244 248 251 252 254 256 261 264 269
235 245 238 265 204 172 180 186 192 199 208 213 216 220 223 228 228 231 229 225 220 213 219 215 222 213 208 213 218 227 230 236 243 251 250 249 254 256 259 262 264 267 270
224 225 236 226 200 179 172 184 194 201 209 213 217 222 225 228 229 233 231 232 229 224 225 224 237 218 208 216 229 226 237 242 249 254 257 258 260 263 264 265 267 268 270
194 195 195 201 188 188 201 202 204 207 211 218 221 224 227 229 230 234 236 233 239 238 234 233 239 242 226 230 236 237 243 255 260 265 266 269 269 268 265 267 270 272 273
164 165 164 171 189 193 190 195 199 200 206 210 218 222 231 233 236 239 239 237 241 244 241 243 248 253 253 248 257 259 262 263 268 273 275 274 273 274 273 271 271 272 273
140 135 131 141 141 152 173 192 195 200 204 213 221 226 227 235 238 240 241 241 245 248 250 253 257 254 258 261 264 266 268 269 272 275 276 276 277 277 276 273 274 274 276
176 174 167 160 165 168 188 202 210 214 221 227 230 228 232 235 237 239 236 243 249 249 253 256 259 261 262 264 267 271 269 272 275 276 278 277 280 280 280 280 278 278 278
220 222 217 219 224 232 242 239 237 241 244 239 236 238 243 245 247 249 250 254 256 258 258 259 260 262 265 267 271 274 275 276 276 276 281 280 281 281 280 280 280 279 279
234 237 237 243 249 255 259 256 249 246 246 239 240 243 247 250 252 256 260 262 264 262 261 262 263 265 267 269 272 274 276 276 277 280 283 281 281 282 282 281 282 282 282
244 246 248 252 255 261 259 257 254 248 250 247 249 249 252 256 261 264 266 266 266 268 267 266 266 267 270 273 275 276 277 278 279 281 283 282 284 283 281 281 282 285 286
254 255 253 252 255 256 256 255 253 252 251 251 253 253 256 261 266 270 269 267 267 267 271 271 268 270 273 276 276 277 279 281 282 283 286 283 284 284 282 279 282 285 286
259 256 259 264 250 255 255 253 252 251 255 252 253 255 260 265 270 273 271 270 270 269 270 272 273 275 276 277 278 280 281 282 284 285 286 287 286 287 284 281 284 287 285